Home   Weather   Linz   Past weeks

Flag for Austria Past Weather in Linz, Upper Austria, Austria — Yesterday and Last 2 Weeks

Now
70 °F

Broken clouds.


Feels Like: 70 °F
Forecast: 60 / 80 °F
Wind: 7 mph from West

Location: Linz / Hoersching-Flughafen

Current Time: Jun 25, 2017 at 7:20:06 pm

Latest Report: Jun 25, 2017 at 6:50 pm


Visibility: N/A

Pressure: 29.95 "Hg

Humidity: 78%

Dew Point: 63 °F

Location of LinzLocation

Past Weather in Linz — Graph

°F

Linz Temperature Yesterday

Maximum temperature yesterday: 84 °F (at 3:50 pm)
Minimum temperature yesterday: 61 °F (at 4:50 am)
Average temperature yesterday: 74 °F

High & Low Weather Summary for the Past Weeks

 TemperatureHumidityPressure
High91 °F (Jun 22, 3:20 pm)94% (Jun 16, 4:50 am)30.30 "Hg (Jun 16, 4:50 am)
Low50 °F (Jun 18, 3:50 am)20% (Jun 19, 4:50 pm)29.86 "Hg (Jun 23, 2:20 am)
Average71 °F55%30.06 "Hg
* Reported Jun 10 5:20 pm — Jun 25 5:50 pm, Linz. Weather by CustomWeather, © 2017

Note: Actual official high and low records may vary slightly from our data, if they occured in-between our weather recording intervals... More about our weather records

Advertising

Linz Weather History for the Previous 24 Hours

Scroll right to see more
 ConditionsComfort  
Time TempWeatherWind HumidityBarometerVisibility
5:50 pm
Sun, Jun 25
70 °FSprinkles. Partly sunny.8 mph73%29.98 "HgN/A
5:20 pm70 °FBroken clouds.9 mph78%29.98 "HgN/A
4:50 pm70 °FPartly sunny.8 mph78%29.98 "HgN/A
4:20 pm68 °FPartly sunny.10 mph83%29.98 "HgN/A
3:50 pm68 °FBroken clouds.8 mph83%29.98 "HgN/A
3:20 pm68 °FBroken clouds.8 mph83%29.98 "HgN/A
2:50 pm66 °FSprinkles. Broken clouds.12 mph88%29.98 "HgN/A
2:20 pm66 °FRain showers. Partly sunny.10 mph88%30.01 "HgN/A
1:50 pm66 °FThundershowers. Broken clouds.9 mph88%30.01 "Hg6 mi
1:20 pm68 °FLight rain. Broken clouds.9 mph88%30.01 "HgN/A
12:50 pm68 °FLight rain. Broken clouds.12 mph83%29.98 "HgN/A
12:20 pm70 °FLight rain. Broken clouds.7 mph78%29.98 "HgN/A
11:50 am72 °FLight rain. Broken clouds.7 mph69%29.98 "HgN/A
11:20 am73 °FLight rain. Broken clouds.5 mph57%29.98 "HgN/A
10:50 am73 °FBroken clouds.6 mph57%29.98 "HgN/A
10:20 am73 °FPartly sunny.6 mph57%29.98 "HgN/A
9:50 am73 °FBroken clouds.7 mph53%29.98 "HgN/A
9:20 am73 °FBroken clouds.7 mph53%29.98 "HgN/A
8:50 am73 °FBroken clouds.6 mph61%29.98 "HgN/A
8:20 am72 °FBroken clouds.5 mph61%29.98 "HgN/A
7:50 am70 °FPartly sunny.6 mph64%29.98 "HgN/A
7:20 am70 °FPassing clouds.5 mph64%29.98 "HgN/A
6:50 am68 °FSunny.3 mph69%29.95 "Hg10 mi
6:20 am64 °FSunny.3 mph78%29.95 "Hg10 mi
5:50 am64 °FScattered clouds.3 mph78%29.95 "HgN/A
5:20 am66 °FScattered clouds.5 mph73%29.95 "HgN/A
4:50 am66 °FMild.7 mph73%29.95 "HgN/A
4:20 am68 °FMild.9 mph69%29.98 "HgN/A
3:20 am68 °FMild.6 mph78%29.95 "HgN/A
2:50 am68 °FMild.5 mph78%29.95 "HgN/A
2:20 am70 °FMild.3 mph73%29.98 "HgN/A
1:50 am70 °FMild.3 mph73%29.98 "HgN/A
1:20 am72 °FMild.3 mph69%29.98 "HgN/A
12:50 am72 °FPassing clouds.1 mph69%29.98 "HgN/A
12:20 am72 °FPassing clouds.5 mph69%29.98 "HgN/A
11:50 pm
Sat, Jun 24
73 °FPassing clouds.7 mph65%30.01 "HgN/A
11:20 pm75 °FMild.7 mph61%29.98 "HgN/A
10:20 pm73 °FPassing clouds.7 mph65%29.98 "HgN/A
9:50 pm75 °FMild.7 mph61%29.98 "HgN/A
9:20 pm77 °FPassing clouds.6 mph57%29.95 "HgN/A
8:50 pm79 °FPassing clouds.6 mph54%29.95 "HgN/A
8:20 pm79 °FWarm.8 mph54%29.95 "HgN/A
7:50 pm82 °FPassing clouds.9 mph48%29.95 "HgN/A
7:20 pm82 °FPassing clouds.13 mph48%29.95 "HgN/A
Weather by CustomWeather, © 2017

See weather overviewHow to use our weather pages